Stanley, ID

2:59 PM MDT on September 28, 2016 (GMT -0600)
Stanley

Weather History for KSNT - April, 2013

Change the Weather History Date:

Saturday, April 13, 2013

  Actual Average Record
Temperature  
Mean Temperature 28 °F 33 °F  
Max Temperature 39 °F 46 °F 70 °F (1988)
Min Temperature 16 °F 19 °F -11 °F (1922)
Degree Days  
Heating Degree Days 37 32  
Month to date heating degree days 385 439  
Since 1 July heating degree days 8669 9157  
Cooling Degree Days 0 0  
Month to date cooling degree days 0 0  
Year to date cooling degree days 0 0  
Moisture  
Dew Point 20 °F    
Average Humidity 64    
Maximum Humidity 96    
Minimum Humidity 31    
Precipitation  
Precipitation 0.35 in 0.05 in 0.40 in (2011)
Month to date precipitation 1.13 0.78  
Year to date precipitation 3.96 5.90  
Sea Level Pressure  
Sea Level Pressure 29.58 in    
Wind  
Wind Speed 8 mph (WNW)    
Max Wind Speed 21 mph    
Max Gust Speed 30 mph    
T = Trace of Precipitation, MM = Missing Value Source: NWS Daily Summary

Daily Weather History Graph

Daily Weather History Graph

Search for Another Location

Airport or City:

Trip Planner

Search our weather history database for the weather conditions in past years. The results will help you decide how hot, cold, wet, or windy it might be!

Date:

Astronomy

Apr. 13, 2013 Rise Set
Actual Time 6:59 AM MDT 8:21 PM MDT
Civil Twilight 6:29 AM MDT 8:52 PM MDT
Nautical Twilight 5:52 AM MDT 9:28 PM MDT
Astronomical Twilight 5:14 AM MDT 10:07 PM MDT
Moon 8:47 AM MDT (4/13) 11:55 PM MDT (4/13)
Length of Visible Light 14h 22m
Length of Day
13h 22m
Waxing Crescent, 11% of the Moon is Illuminated
Apr 13
Waxing Crescent
Apr 18
First Quarter
Apr 25
Full
May 2
Last Quarter
May 9
New

Hourly Weather History & Observations

Time (MDT) Temp. Windchill Dew Point Humidity Pressure Visibility Wind Dir Wind Speed Gust Speed Precip Events Conditions
12:51 AM 37.0 °F 34.5 °F 25.0 °F 62% 29.60 in - SE 3.5 mph - N/A   Unknown
1:51 AM 37.0 °F 31.6 °F 28.9 °F 73% 29.57 in - SE 6.9 mph - N/A   Unknown
2:51 AM 35.1 °F 28.6 °F 30.9 °F 85% 29.55 in - SE 8.1 mph - N/A   Unknown
3:51 AM 33.1 °F 27.7 °F 32.0 °F 96% 29.51 in - SE 5.8 mph - 0.04 in   Unknown
4:51 AM 33.1 °F 26.1 °F 32.0 °F 96% 29.47 in - SE 8.1 mph - 0.07 in   Unknown
5:51 AM 33.1 °F 28.7 °F 32.0 °F 96% 29.46 in - ESE 4.6 mph - 0.10 in   Unknown
6:51 AM 33.1 °F - 32.0 °F 96% 29.44 in - Calm Calm - 0.08 in   Unknown
7:51 AM 33.1 °F 30.0 °F 32.0 °F 96% 29.45 in - Variable 3.5 mph - 0.03 in   Unknown
8:51 AM 33.1 °F 26.9 °F 28.9 °F 85% 29.49 in - Variable 6.9 mph - 0.01 in   Unknown
9:51 AM 33.1 °F 27.7 °F 27.0 °F 78% 29.47 in - Variable 5.8 mph - N/A   Unknown
10:51 AM 34.0 °F 25.0 °F 21.0 °F 59% 29.50 in - NW 12.7 mph 21.9 mph N/A   Unknown
11:51 AM 33.1 °F 26.1 °F 16.0 °F 50% 29.52 in - West 8.1 mph 16.1 mph N/A   Unknown
12:51 PM 32.0 °F 21.6 °F 19.0 °F 59% 29.52 in - NW 15.0 mph 23.0 mph N/A   Unknown
1:51 PM 33.1 °F 23.9 °F 16.0 °F 50% 29.52 in - NW 12.7 mph 19.6 mph N/A   Unknown
2:51 PM 33.1 °F 24.9 °F 15.1 °F 48% 29.54 in - West 10.4 mph 18.4 mph N/A   Unknown
3:51 PM 32.0 °F 22.1 °F 12.0 °F 44% 29.56 in - WNW 13.8 mph 26.5 mph N/A   Unknown
4:41 PM 24.8 °F 11.5 °F 19.4 °F 80% 29.69 in - NNW 17.3 mph 29.9 mph N/A   Unknown
4:51 PM 23.0 °F 10.6 °F 19.0 °F 85% 29.66 in - NNW 13.8 mph 27.6 mph N/A   Unknown
5:51 PM 28.9 °F 18.6 °F 10.0 °F 45% 29.63 in - NNW 12.7 mph 26.5 mph 0.02 in   Unknown
6:51 PM 28.0 °F 15.7 °F 1.9 °F 33% 29.65 in - NW 17.3 mph 24.2 mph N/A   Unknown
7:51 PM 26.1 °F 16.8 °F 6.1 °F 43% 29.68 in - WNW 9.2 mph - N/A   Unknown
8:51 PM 24.1 °F 18.2 °F 8.1 °F 51% 29.71 in - Variable 4.6 mph - N/A   Unknown
9:51 PM 23.0 °F 15.8 °F 8.1 °F 53% 29.75 in - Variable 5.8 mph - N/A   Unknown
10:51 PM 23.0 °F - 9.0 °F 55% 29.75 in - Calm Calm - N/A   Unknown
11:51 PM 19.9 °F - 12.0 °F 71% 29.78 in - Calm Calm - N/A   Unknown